Theta_e
298 289 286 287 289 291 294 294 294 296 296 295 294 292 290 291 292 296 296 298 299 294 294 295 294 294 295 297 298 300 300 301 301 303 305 316 318 318 319 320 325 327 327 329 330 331 333 333 333 332 331 331 332 329 328 328 331 330 329 328 328 330 331 329 331 334 334 332 332 332 332 330 329 329 330 331 331 332 333 335 335 337 336 335 335 332
297 287 288 291 294 295 296 297 297 296 296 295 293 292 290 292 290 296 297 299 299 295 292 295 294 293 295 297 298 300 299 299 302 303 303 314 316 317 317 319 325 325 327 329 329 331 332 332 332 331 330 333 328 327 327 328 329 327 328 328 329 330 330 329 331 335 334 333 333 331 330 329 328 328 327 327 329 332 334 334 334 335 334 333 333 334
288 287 291 294 297 298 297 297 298 296 295 295 292 291 290 291 295 298 299 300 299 297 291 295 293 293 294 297 298 298 300 301 303 304 304 313 315 316 316 320 323 324 324 326 328 329 330 331 332 332 333 332 328 326 328 328 327 327 327 328 330 330 328 327 328 334 332 332 333 331 328 327 325 327 329 329 331 333 332 332 333 334 334 332 333 333
286 289 294 297 297 296 297 297 297 297 296 292 290 288 288 293 292 287 295 297 301 297 292 293 293 292 296 296 298 298 302 303 304 306 306 307 314 315 318 323 322 323 324 325 326 328 330 332 332 332 331 327 326 326 325 326 327 327 328 329 328 329 330 329 330 333 334 332 333 331 330 326 324 324 328 330 331 331 331 330 333 332 333 333 333 333
289 294 297 297 297 296 295 297 296 293 290 294 293 291 290 293 294 293 292 299 301 300 301 294 292 289 294 293 295 297 300 305 304 305 305 305 307 312 321 323 323 323 324 324 326 328 330 330 330 330 329 326 326 324 323 325 326 327 330 329 328 330 333 330 330 330 332 329 327 327 326 326 324 324 323 325 325 328 330 330 329 330 332 333 332 331
292 297 299 296 295 296 295 293 295 296 292 291 296 295 294 296 295 296 297 295 290 289 297 294 282 283 289 293 294 295 297 299 303 303 303 303 305 318 318 318 320 323 326 325 326 328 329 329 331 330 325 324 323 323 324 326 327 329 330 329 329 330 330 329 329 329 331 328 324 322 321 320 320 319 318 318 320 325 326 327 328 330 332 332 331 330
293 298 298 297 295 295 295 294 297 298 290 290 290 298 297 296 296 295 294 293 285 284 293 299 285 280 288 292 294 296 296 297 300 301 302 303 304 315 317 317 318 322 324 324 322 324 326 328 327 325 324 324 323 323 325 327 327 328 330 330 330 331 328 328 327 328 330 328 324 322 321 320 319 320 322 322 321 322 323 325 325 325 326 329 329 328
296 296 296 298 297 295 293 291 298 297 291 289 298 297 296 294 294 294 294 291 288 297 301 298 290 284 283 289 295 296 296 296 299 301 302 303 310 315 317 317 319 322 323 321 320 320 320 321 320 322 324 324 323 323 325 326 327 327 327 329 331 329 329 328 327 328 330 327 323 321 321 322 321 321 320 323 321 323 324 322 324 325 325 326 325 324
297 294 295 295 296 293 290 295 300 298 293 292 298 298 296 295 294 294 291 289 292 290 285 292 296 286 283 289 295 296 294 295 297 300 302 309 314 315 315 317 318 319 321 321 320 319 320 319 321 322 322 323 324 325 324 325 326 327 328 329 329 329 328 327 327 327 328 329 325 322 322 324 324 323 321 322 322 322 323 321 321 322 324 325 325 325
299 298 298 297 294 291 297 297 297 297 292 296 297 298 297 296 295 294 290 290 293 287 282 289 294 284 283 288 291 294 293 294 295 299 304 311 314 314 314 316 316 318 319 321 321 320 320 321 321 323 323 324 324 325 326 326 326 326 326 327 327 327 326 326 326 327 326 326 325 326 324 322 321 320 320 320 320 320 320 320 322 323 322 322 324 326
298 305 303 299 295 297 297 297 298 298 297 299 298 296 295 294 292 292 291 290 288 282 283 293 296 290 282 286 289 292 293 296 296 302 309 312 312 312 314 315 316 317 318 320 321 322 321 322 321 321 321 322 323 324 325 325 326 326 327 326 326 326 325 325 325 326 325 325 325 326 323 321 320 320 319 319 319 320 322 322 321 321 322 323 322 324
297 298 298 299 302 301 299 296 300 300 298 297 294 291 289 288 291 288 289 290 281 277 287 292 294 294 282 284 292 299 302 300 301 303 307 309 311 312 315 317 318 319 320 321 320 320 320 321 320 319 320 321 321 323 324 325 326 326 326 325 324 324 324 324 324 325 325 324 325 325 322 321 321 320 319 318 318 319 321 320 321 322 322 322 323 323
293 293 297 299 303 300 297 294 292 296 296 294 291 290 286 280 281 279 281 279 278 276 286 293 295 292 286 293 297 302 303 305 303 308 309 310 312 313 315 316 317 318 320 320 319 319 318 318 318 318 319 320 321 322 324 325 325 325 325 325 324 323 324 324 324 325 324 324 325 327 321 322 322 320 319 319 318 319 319 319 321 321 320 320 322 321
288 295 295 297 299 300 298 288 287 288 291 291 289 286 284 280 279 274 278 279 281 287 292 291 295 285 294 297 301 302 305 308 308 307 311 312 311 312 314 316 316 317 318 318 319 319 318 318 318 319 320 320 321 323 324 325 325 325 325 324 324 323 323 324 323 324 323 323 324 327 322 323 322 320 320 319 319 320 319 320 320 321 320 321 321 320
280 283 290 294 290 298 297 295 293 292 290 290 294 290 285 284 282 275 278 275 277 279 286 294 288 283 284 291 304 305 308 309 310 312 313 314 314 313 315 316 316 316 317 318 318 318 318 318 319 319 319 319 321 323 323 323 322 322 322 322 321 322 322 322 322 323 324 324 326 326 324 323 322 321 320 320 321 321 320 320 319 321 321 322 321 319
288 286 292 297 296 298 296 298 298 295 293 294 295 294 288 282 289 282 282 283 282 281 281 284 284 293 292 300 303 307 309 309 311 312 314 313 314 315 315 314 315 315 316 317 317 318 318 318 319 319 319 320 321 323 323 322 321 322 320 320 320 321 321 321 322 323 325 325 327 326 323 323 323 322 322 321 323 323 320 319 322 322 321 319 318 318
289 284 295 296 298 296 297 299 298 298 284 294 292 285 288 296 293 283 284 289 283 282 280 285 289 294 298 300 302 306 306 307 309 311 313 313 314 314 314 315 315 315 316 317 317 318 318 318 319 319 317 319 319 321 321 322 323 322 322 321 320 321 322 323 322 323 324 325 326 324 324 323 321 321 321 320 320 321 321 323 322 321 319 318 317 319
286 285 296 295 293 297 299 299 298 299 296 292 288 290 295 298 298 287 281 283 282 278 279 286 282 287 289 283 298 304 304 304 307 309 310 311 312 313 314 315 314 314 316 318 319 318 319 319 319 319 319 320 321 322 322 323 323 323 323 321 321 321 323 323 323 324 325 325 324 323 323 323 321 321 322 321 320 320 320 321 321 319 317 316 317 318
293 284 290 296 297 297 300 298 296 299 301 294 292 301 289 281 283 288 283 279 278 276 279 282 289 290 292 290 296 300 301 302 304 307 308 309 311 312 313 315 315 315 316 317 317 317 317 317 318 318 319 321 322 322 323 323 324 324 323 324 323 323 323 324 325 326 324 324 327 326 324 324 321 323 322 321 320 320 320 320 320 319 317 317 317 317
296 284 286 295 295 299 299 294 284 290 297 298 300 296 300 292 286 283 282 284 283 279 278 279 288 281 295 293 299 300 302 303 303 305 307 308 311 312 312 313 313 313 314 315 316 317 318 318 317 318 318 319 319 319 320 322 323 323 324 324 321 320 321 322 322 322 323 325 326 326 325 324 324 324 321 320 319 318 318 320 320 319 316 316 317 316
288 290 281 289 298 299 290 292 289 291 290 289 291 289 294 294 297 292 292 286 282 279 280 280 281 285 293 299 302 301 303 304 304 304 306 308 310 312 313 313 313 313 313 315 316 317 317 316 316 317 318 318 319 320 320 320 321 323 323 323 321 320 319 321 321 322 322 322 324 325 325 323 323 321 321 320 320 318 318 319 320 318 317 317 315 315
287 286 283 288 290 289 291 297 299 297 296 293 290 288 288 289 286 284 282 292 290 283 280 281 281 287 296 305 305 304 305 305 306 306 306 308 309 309 310 311 312 312 314 315 316 317 316 316 316 318 319 320 320 320 320 321 322 321 322 322 321 322 322 322 322 323 322 322 323 322 323 323 321 321 321 320 319 318 318 318 319 319 318 316 315 315
297 294 288 283 287 290 296 298 301 300 299 297 296 292 294 291 291 285 279 284 289 289 289 286 284 285 298 305 305 306 305 306 307 307 306 307 308 309 309 310 311 312 314 315 316 317 316 316 316 318 319 319 319 319 320 320 321 321 321 322 322 322 322 323 322 323 321 321 321 322 322 323 321 321 321 320 318 318 318 318 318 317 316 316 314 315
303 287 287 289 293 295 297 300 300 301 299 295 296 298 295 292 292 288 288 288 285 288 284 283 284 289 301 306 306 307 307 307 306 307 307 307 309 309 309 308 310 311 313 315 314 315 316 317 318 318 318 318 319 318 319 319 320 321 322 322 322 321 322 320 322 322 321 321 321 323 324 322 321 321 320 319 318 317 317 318 317 318 318 316 314 315
288 289 288 281 282 284 287 292 293 297 296 292 291 294 297 297 297 296 294 289 283 286 288 282 280 284 299 304 305 306 306 306 305 306 307 306 307 308 309 309 309 311 312 313 313 313 314 314 315 317 317 318 319 318 318 318 319 319 319 319 320 319 321 320 322 322 323 322 322 321 320 321 321 321 321 320 320 319 319 317 317 317 317 315 313 314
290 289 287 280 278 276 276 277 281 283 288 293 295 294 297 296 295 291 283 284 280 286 290 285 284 292 300 303 303 304 304 304 306 306 307 308 307 308 309 310 310 310 311 312 313 313 314 314 316 316 316 317 318 318 318 317 320 320 319 320 320 319 320 321 321 322 321 321 321 319 320 320 319 320 322 320 321 320 319 317 316 316 316 314 313 313
291 295 292 287 284 283 284 287 294 293 290 287 291 293 294 297 296 294 288 283 281 284 283 289 291 292 296 300 301 302 302 302 303 305 306 306 308 309 309 310 310 310 311 312 312 312 312 313 314 315 315 316 315 317 319 319 320 319 319 319 321 322 321 320 321 320 319 319 319 318 318 318 318 319 320 320 320 321 319 317 316 316 315 315 314 314
294 286 292 294 293 292 293 293 295 295 292 292 291 291 294 295 295 292 286 283 292 284 281 289 294 291 294 298 299 301 302 302 303 304 305 306 307 308 309 309 308 310 311 313 312 311 311 312 312 313 314 316 317 318 317 317 318 319 319 320 320 320 320 322 321 321 321 320 319 317 316 319 319 320 322 319 320 322 320 319 317 315 316 315 314 314
292 285 293 293 294 294 294 294 294 293 294 294 293 292 292 294 294 290 290 293 292 282 282 291 292 292 294 298 299 300 302 302 303 304 306 307 308 306 306 304 301 299 299 299 300 301 303 306 306 307 311 314 315 315 315 317 317 317 317 319 320 320 319 320 321 319 319 318 318 319 320 320 320 319 319 318 320 322 321 319 319 319 317 318 318 315
296 286 294 294 292 293 293 294 294 292 292 293 294 293 293 293 293 294 293 294 295 291 294 295 295 295 299 299 301 302 303 304 304 306 307 307 305 303 300 298 298 297 297 297 297 297 297 297 297 298 298 298 299 300 303 312 316 317 317 317 318 318 319 319 318 318 317 317 316 318 320 321 321 320 320 321 320 320 320 319 318 316 315 316 317 316
296 286 293 294 290 291 292 293 292 292 293 290 292 293 294 296 295 294 293 293 294 293 294 294 293 292 299 301 300 302 302 302 301 300 300 302 304 299 298 297 296 295 296 296 296 297 297 297 297 297 296 296 297 298 300 301 301 302 305 314 318 317 318 318 316 315 315 317 316 319 320 320 320 319 320 320 320 320 319 319 318 315 316 316 316 317
295 287 294 292 283 285 292 292 291 291 291 290 290 291 292 291 288 291 287 293 290 289 289 290 289 289 295 294 295 295 295 295 294 293 294 294 295 295 294 294 294 294 295 295 296 297 297 297 296 296 295 295 297 298 298 299 300 301 301 301 303 314 318 317 317 316 315 315 317 319 319 319 320 319 319 321 319 319 319 318 317 316 317 316 315 315
293 289 284 285 283 283 291 293 292 290 287 284 285 289 291 292 292 294 295 295 292 290 285 285 286 294 294 294 291 291 291 292 292 293 292 293 294 294 293 293 293 294 294 295 296 296 297 297 297 296 295 295 296 297 298 299 299 299 300 300 303 305 304 304 304 304 304 305 305 311 316 318 318 319 318 319 319 318 317 317 316 315 315 313 312 312
295 291 285 290 282 283 289 290 290 283 277 280 290 294 294 292 291 289 288 293 295 294 290 292 292 294 293 292 290 289 289 290 291 293 294 293 292 292 292 292 293 294 294 295 295 296 297 297 297 297 297 296 296 297 297 299 299 299 300 300 301 303 303 303 302 302 302 302 303 303 304 307 311 314 315 317 316 316 314 314 314 315 312 312 312 312
290 290 285 291 284 283 286 285 281 276 279 288 294 295 295 297 296 294 294 295 295 295 294 294 292 290 291 292 291 291 291 292 294 294 294 294 293 292 291 291 291 291 292 292 292 294 296 297 298 298 298 299 299 298 297 297 298 298 298 298 298 301 303 302 302 301 301 301 301 301 301 302 303 304 306 310 314 314 314 313 312 313 312 310 311 311
287 285 286 286 285 286 283 282 277 278 287 291 292 295 296 296 294 294 293 295 296 296 296 292 290 290 290 290 290 291 291 292 293 294 295 295 295 294 292 291 291 291 290 291 292 293 295 297 298 299 299 299 298 298 298 298 298 297 297 297 297 298 301 301 301 301 301 300 300 300 300 301 300 301 303 304 306 307 308 310 311 311 311 310 310 310
294 292 287 284 287 282 282 281 281 286 284 287 287 288 291 287 289 288 283 286 294 296 291 288 288 289 290 290 290 290 291 291 289 290 295 295 294 295 294 294 295 295 295 294 294 293 295 297 297 298 298 297 297 297 299 299 298 297 297 296 297 298 299 299 299 299 299 300 300 300 300 300 300 300 301 302 304 304 304 305 310 312 311 311 309 309
296 287 287 286 283 285 282 280 281 279 277 280 288 292 294 295 295 295 290 286 296 294 292 290 288 289 290 290 290 290 292 288 284 286 293 295 296 295 295 296 296 297 297 297 297 297 296 296 297 298 298 297 298 299 298 298 299 298 297 296 296 297 298 298 297 298 298 298 299 299 299 299 299 299 301 301 301 302 303 304 304 306 311 311 311 311
296 295 289 284 283 282 282 280 279 276 279 285 286 290 292 295 295 295 288 283 294 296 292 291 289 290 290 290 291 292 288 283 283 286 292 296 296 296 294 295 294 294 295 297 299 298 299 298 298 298 299 296 296 298 299 299 299 298 297 297 298 298 298 297 297 298 297 297 298 298 298 299 299 300 300 300 300 301 301 302 303 303 303 304 308 311
289 285 286 284 281 282 281 279 277 281 281 287 290 292 294 297 295 290 280 280 293 294 293 292 290 290 290 291 293 291 287 283 284 289 294 295 296 296 295 294 293 293 293 294 294 296 298 299 299 295 294 294 295 296 299 300 300 300 298 298 299 298 296 296 297 298 298 298 298 298 299 299 300 299 299 299 300 300 301 301 300 300 301 301 302 303
284 284 284 282 282 283 283 280 283 283 288 291 290 292 293 296 294 282 278 284 291 293 294 293 292 292 293 293 293 288 290 291 292 294 295 296 295 295 295 294 293 293 293 293 293 295 295 296 296 295 295 296 296 297 297 297 297 296 297 297 297 296 297 298 298 298 298 298 298 299 299 299 299 298 299 300 300 300 300 300 300 300 301 301 302 302
283 284 284 284 281 281 282 281 281 282 286 289 291 293 294 290 282 280 290 294 293 292 294 294 292 293 293 291 290 290 290 292 293 293 293 293 292 292 293 293 293 293 294 295 295 294 294 296 296 296 296 296 297 297 297 296 295 295 295 295 296 297 298 298 297 298 297 297 297 298 298 299 299 299 300 300 299 298 298 299 300 301 301 301 301 301
282 281 281 281 282 282 282 279 278 275 285 293 292 289 291 285 285 292 293 293 294 292 292 292 293 292 293 291 292 292 292 292 292 291 292 292 291 292 292 292 292 292 292 293 293 294 295 294 294 295 295 296 296 296 295 295 294 294 294 294 296 297 297 297 297 297 297 297 297 297 297 297 297 298 299 299 298 298 297 298 298 298 299 299 299 299
287 281 281 282 285 279 278 276 277 284 287 293 291 283 288 290 293 294 293 291 293 293 292 292 292 293 293 292 291 291 291 291 291 291 291 292 292 292 292 292 292 293 293 294 294 294 295 295 296 295 296 297 297 297 296 294 294 293 292 293 295 294 295 295 295 295 295 294 295 295 296 296 297 296 296 297 297 297 296 296 297 297 297 297 297 298
287 284 285 281 284 281 280 282 288 291 291 292 292 291 291 293 295 295 293 292 290 290 292 291 291 291 292 292 292 292 291 292 292 292 291 291 291 291 291 292 293 293 294 294 294 294 294 294 294 294 295 295 295 296 295 294 293 292 292 293 295 294 294 294 294 294 293 293 294 294 295 295 295 295 295 295 295 294 294 295 295 295 295 295 295 295
290 291 290 287 284 289 290 291 293 291 290 291 292 293 292 292 293 293 292 290 290 290 291 290 291 292 292 292 291 290 290 291 292 292 292 292 291 292 292 292 293 294 294 294 293 293 293 294 294 294 293 293 293 294 294 294 294 292 292 294 295 294 294 294 294 293 293 293 293 293 294 294 293 294 294 294 294 294 294 294 294 294 294 294 294 294
287 290 288 283 287 285 280 289 289 289 290 290 290 292 292 292 292 293 293 292 291 292 292 292 292 292 292 292 291 291 291 291 290 290 290 290 290 291 292 292 292 292 292 292 293 293 293 294 293 293 292 292 294 294 295 294 294 294 294 294 294 294 294 293 293 293 292 292 292 292 293 292 292 292 292 292 293 293 294 294 294 293 293 293 293 293
283 289 286 286 284 283 283 288 290 291 291 291 291 289 289 290 291 292 292 292 292 293 293 293 292 291 292 291 292 291 291 291 291 290 290 290 290 291 291 291 292 292 292 293 294 293 293 293 292 292 293 293 293 294 294 295 294 295 294 294 294 293 293 293 292 291 291 292 292 292 292 292 289 291 291 291 292 292 292 293 293 293 293 292 292 292
287 288 281 287 283 285 289 290 290 291 290 291 291 291 290 290 290 291 291 292 292 291 291 292 292 291 290 289 290 291 290 291 291 291 290 292 291 291 290 291 291 291 292 292 292 292 292 292 292 292 292 292 293 293 293 293 294 294 293 293 293 292 292 291 291 291 291 291 291 291 292 292 292 292 291 291 291 292 291 291 292 292 293 293 293 292
286 281 285 285 282 281 283 286 289 284 283 288 290 290 290 291 292 291 292 292 292 291 292 291 291 291 290 290 289 289 289 290 290 290 290 290 290 290 290 290 290 290 291 291 292 292 292 293 292 292 292 292 292 293 292 292 292 293 293 293 293 293 291 290 290 290 291 292 292 292 292 292 291 291 291 290 291 291 291 290 291 291 291 291 292 291
283 285 282 281 281 282 289 291 292 290 289 290 291 292 292 293 292 292 292 291 291 291 291 290 289 289 290 290 290 290 289 288 289 289 289 289 288 289 289 290 290 290 290 291 291 292 292 292 292 293 293 293 292 292 292 291 291 292 293 294 294 292 291 289 289 289 290 291 292 292 292 292 292 292 292 292 292 292 291 291 291 291 291 291 291 291
Wind_Speed
2 6 7 9 8 7 7 10 10 10 10 12 12 10 7 8 8 10 14 13 14 8 15 16 10 14 15 14 12 11 6 6 6 10 13 15 13 14 13 12 12 12 13 12 14 13 11 11 13 12 9 8 5 9 9 8 10 11 10 9 6 4 6 2 3 6 6 6 6 5 6 6 5 6 6 5 4 5 6 6 6 5 5 4 5 5
6 6 10 8 7 8 9 8 11 12 11 11 7 7 9 9 7 10 12 11 11 7 10 13 7 11 15 11 12 11 10 8 12 18 11 18 13 14 13 12 12 11 10 14 11 10 9 9 10 11 10 10 11 11 10 7 10 14 9 8 8 5 4 5 5 6 5 6 7 7 7 5 5 5 7 6 6 5 5 5 5 4 5 4 4 5
7 11 8 8 9 9 11 10 8 10 11 11 7 7 8 10 8 12 16 21 9 6 9 13 13 6 9 12 12 9 9 7 2 9 10 18 14 14 11 13 13 13 13 12 12 10 9 11 9 10 10 9 10 13 9 10 11 12 9 5 6 4 4 6 10 4 6 6 7 6 6 7 4 3 6 6 6 6 7 5 5 5 5 5 4 4
6 8 12 10 9 9 9 11 9 10 10 8 7 6 10 11 5 6 12 6 7 2 8 11 12 5 6 7 14 7 9 5 9 11 13 15 19 16 15 17 16 16 15 14 13 11 7 8 7 7 8 10 8 11 11 7 10 10 9 8 9 7 3 7 9 4 6 4 3 4 6 5 6 6 6 6 6 6 7 5 5 5 7 6 6 5
9 8 9 11 11 11 9 9 9 5 7 8 8 6 6 7 8 5 5 8 5 4 6 8 4 3 3 4 2 6 4 6 9 7 5 5 12 11 13 14 19 19 17 15 13 10 8 7 4 7 10 11 12 12 8 8 9 9 11 10 11 10 9 8 3 4 7 8 7 8 8 8 8 6 7 6 5 5 6 5 4 5 6 7 6 5
12 15 7 13 14 13 10 9 11 4 3 2 4 6 6 9 13 11 10 11 6 6 4 6 3 1 1 3 4 6 3 5 6 8 6 5 9 17 16 12 9 11 14 17 13 9 7 6 5 7 11 11 14 14 16 11 9 9 9 10 10 8 4 5 3 5 7 7 9 8 8 8 7 6 6 6 7 7 7 6 4 4 6 5 5 5
10 10 10 11 15 13 13 13 6 5 3 1 4 2 8 12 13 10 9 5 3 2 5 2 3 4 5 3 5 6 5 11 5 7 7 6 8 13 14 12 12 12 11 12 14 11 7 4 7 8 8 12 13 11 8 8 6 6 9 8 7 6 4 2 3 3 7 7 7 9 8 8 8 7 4 4 5 6 5 5 4 5 6 8 7 5
7 12 10 12 9 12 11 10 4 7 5 6 2 8 6 9 11 8 5 6 6 2 1 2 5 2 3 6 7 6 4 3 4 6 7 6 12 13 12 11 11 11 12 14 13 11 13 12 11 10 11 8 8 8 3 8 7 7 5 5 6 7 6 4 4 4 5 8 7 8 8 7 7 7 6 6 6 6 6 6 5 5 5 6 6 6
9 9 9 7 5 4 6 3 2 5 3 3 4 9 14 11 11 9 4 5 4 5 3 2 3 1 2 6 6 6 6 5 4 5 6 12 14 11 13 14 15 15 17 16 12 11 12 12 8 8 8 10 9 10 7 5 7 6 5 5 6 7 7 5 4 6 5 7 8 8 7 6 5 7 7 6 6 7 6 6 4 5 4 4 4 4
4 10 9 10 4 4 2 2 4 5 6 6 7 7 8 7 8 6 5 7 1 1 3 2 1 2 2 5 5 3 5 7 6 6 9 14 13 17 18 15 14 13 10 10 14 12 12 12 13 9 10 10 12 8 7 3 3 3 3 6 6 8 7 6 5 6 6 5 3 6 8 9 7 7 6 6 7 6 6 5 4 5 6 6 5 5
6 5 7 7 6 2 2 4 4 6 9 3 8 8 9 8 6 6 4 3 2 3 5 4 2 5 3 4 5 3 6 6 4 7 9 12 17 20 16 16 12 12 12 11 14 11 10 11 15 17 16 14 13 9 7 6 3 3 6 7 8 8 7 7 7 6 6 4 3 7 10 10 9 8 8 7 6 6 4 6 6 5 6 5 5 5
12 7 5 1 9 6 3 4 7 11 7 8 3 6 5 6 4 2 4 4 2 2 3 5 5 7 5 4 3 1 8 4 11 11 12 14 20 16 15 13 13 11 13 14 13 14 13 11 7 12 13 14 14 10 9 8 8 9 10 9 9 7 8 7 6 6 6 4 2 5 9 10 9 9 8 8 7 6 6 6 6 6 6 5 5 4
11 10 2 3 2 2 5 8 6 6 7 9 6 4 4 1 2 2 1 4 4 3 3 5 3 3 5 1 1 8 8 12 5 14 14 17 23 19 15 13 12 11 12 13 12 11 13 12 11 11 14 14 15 14 12 11 12 12 12 12 12 10 10 10 8 9 8 6 4 5 8 9 9 9 9 7 6 5 7 6 6 7 7 5 5 4
3 6 4 3 2 4 3 4 4 5 6 8 8 5 3 0 0 2 2 1 1 1 1 3 4 3 2 1 3 7 9 10 11 9 14 19 25 21 15 13 12 10 10 10 10 9 10 10 7 6 7 4 10 21 20 16 12 12 11 13 13 13 10 8 7 7 6 4 3 4 7 9 9 8 8 7 6 5 6 6 7 7 7 6 6 5
2 4 8 3 3 6 7 9 4 4 4 3 2 5 7 4 2 3 1 2 4 4 5 5 4 2 4 1 2 12 11 13 11 13 17 22 21 18 15 14 13 11 8 7 8 9 9 10 8 8 9 7 7 12 8 5 2 1 3 3 4 3 1 1 4 5 6 4 4 3 6 8 8 8 7 7 6 6 6 5 6 6 6 7 6 7
6 6 5 9 7 9 10 7 7 6 5 1 2 2 2 4 4 4 2 1 1 1 2 3 2 1 3 2 4 11 13 14 14 17 20 17 15 16 14 12 11 10 10 8 8 7 6 6 6 7 7 9 5 8 8 5 2 1 1 0 2 1 2 3 3 4 5 5 4 4 7 8 9 7 7 6 5 5 6 5 6 6 7 7 7 6
3 4 4 12 14 7 10 6 7 3 0 4 3 3 7 5 6 3 2 1 4 3 1 2 1 2 4 4 7 11 14 12 13 14 16 15 14 14 13 12 11 8 8 9 8 5 4 5 5 3 3 2 4 7 8 7 5 5 4 3 2 3 3 3 2 3 3 3 2 4 5 6 7 8 7 7 6 6 5 7 7 7 7 7 7 6
2 4 6 3 14 11 6 9 6 7 6 3 2 5 3 3 6 5 4 0 0 2 3 3 4 2 0 1 3 10 12 9 12 13 13 12 12 14 12 11 11 10 8 8 9 7 5 4 4 4 3 4 4 8 9 7 4 4 3 3 3 3 4 2 2 1 1 0 2 3 4 4 6 6 6 7 7 7 8 8 7 7 7 7 6 7
5 6 5 5 2 4 7 8 9 8 6 8 8 3 1 2 1 2 3 2 3 2 2 0 5 3 2 2 3 3 6 7 9 11 12 11 12 15 15 13 12 11 10 10 10 9 7 4 5 4 5 4 4 4 7 7 7 5 3 1 4 4 3 3 2 2 1 2 4 5 6 5 5 4 5 6 7 7 8 8 8 7 7 6 6 6
4 3 3 4 3 1 4 2 3 6 5 6 5 1 3 6 4 0 3 2 5 2 1 4 5 1 2 1 3 3 5 7 9 10 11 9 11 12 12 11 10 10 9 9 10 9 8 6 4 4 4 4 5 4 3 7 8 7 2 3 3 3 3 3 3 3 0 1 2 4 4 5 4 6 6 7 7 7 7 7 7 8 7 7 6 6
4 4 3 3 4 6 5 4 3 2 1 4 3 2 3 1 4 6 0 2 2 3 2 4 0 1 5 3 4 6 4 6 8 10 9 8 9 10 9 9 9 9 9 9 10 9 8 7 6 5 5 4 3 3 3 4 4 5 7 6 3 3 2 3 3 3 2 4 6 1 4 4 5 6 6 7 7 6 6 6 7 7 7 6 6 6
3 0 7 2 4 1 3 3 6 9 8 4 4 5 5 5 2 1 5 2 2 3 2 3 4 1 6 3 3 7 6 7 7 10 9 9 9 7 6 6 5 6 6 8 9 7 6 5 5 5 6 4 4 4 5 5 6 6 7 6 5 4 2 2 2 1 1 2 2 7 9 2 6 6 6 7 5 5 5 6 7 6 6 7 7 6
3 3 2 4 4 1 1 6 6 12 9 8 11 10 9 1 8 5 1 6 2 1 2 2 5 1 3 5 6 7 7 11 11 6 9 7 6 6 5 5 4 4 6 6 7 8 7 6 6 7 6 5 5 4 5 5 5 5 5 5 4 2 1 2 1 0 1 2 4 4 4 9 3 6 7 6 4 5 5 5 6 6 6 6 6 5
3 1 1 3 4 5 4 7 8 14 11 11 11 10 11 9 5 8 9 9 4 2 4 1 3 1 5 3 8 9 11 11 10 7 10 9 8 9 7 5 4 5 4 6 6 4 5 4 4 6 6 6 5 4 5 6 5 6 6 6 3 1 4 5 1 4 5 5 7 9 8 7 7 4 7 5 4 4 4 5 5 5 6 6 6 5
3 5 3 1 2 6 8 7 5 6 8 3 3 6 11 10 14 3 3 2 5 5 10 3 4 3 1 3 4 11 12 9 8 8 6 9 8 9 8 7 5 5 8 7 4 6 7 7 6 5 5 4 5 7 7 5 2 5 3 5 1 1 5 4 5 7 4 6 7 8 8 7 5 7 3 4 3 4 4 5 5 4 5 6 5 4
4 4 2 1 3 2 2 3 2 3 3 0 4 11 13 14 10 6 3 1 2 2 4 6 3 2 3 7 10 11 9 8 5 9 7 7 7 7 7 7 6 7 7 8 11 13 11 7 6 7 7 8 8 6 4 3 2 6 4 3 1 3 5 6 4 4 2 3 5 5 5 5 7 6 1 1 1 3 4 5 5 4 4 5 5 4
1 1 0 1 2 5 6 4 1 2 3 5 6 12 12 11 11 5 3 4 2 2 4 3 12 10 7 7 10 10 8 6 7 8 8 7 7 8 9 9 9 8 9 12 12 10 11 11 9 8 7 7 7 3 0 1 3 5 3 4 4 5 3 3 5 7 6 7 6 3 6 0 3 0 2 1 2 1 3 5 5 4 4 4 5 4
1 1 4 1 2 3 5 5 4 2 4 5 9 9 13 12 7 11 5 2 4 2 3 1 12 12 6 6 7 8 9 7 7 7 6 8 9 9 11 11 12 12 11 10 10 10 11 9 9 9 6 4 4 2 5 1 0 7 6 7 5 5 5 6 6 4 5 6 4 4 1 1 6 2 3 3 5 4 2 2 5 5 2 4 5 5
0 1 3 5 3 3 6 7 5 2 4 5 9 7 10 10 11 9 2 3 1 2 5 6 7 9 5 5 4 5 8 8 7 7 8 9 11 14 16 16 15 16 15 16 15 13 13 10 10 11 8 2 2 5 7 5 5 6 6 6 5 5 5 7 8 7 4 3 6 8 7 4 3 2 0 2 3 6 5 3 3 3 4 4 2 1
3 3 3 5 3 4 5 8 4 4 4 4 7 7 9 8 7 6 3 8 8 5 14 13 12 11 6 5 4 4 4 7 7 6 6 8 12 16 19 18 16 15 14 14 14 13 13 13 13 12 12 14 16 17 14 8 4 3 6 7 8 10 8 9 10 7 5 4 4 5 5 5 4 1 1 2 4 6 5 5 2 2 3 3 2 3
4 2 6 2 3 3 5 9 6 2 5 2 4 9 8 4 7 5 4 6 11 15 10 12 15 10 5 10 11 9 10 9 13 13 11 9 7 16 18 18 16 14 13 13 13 13 13 13 12 12 14 14 14 13 12 12 12 14 12 3 5 8 6 7 6 5 6 5 4 7 7 6 5 3 2 2 4 3 1 3 6 1 1 2 2 3
6 3 7 5 2 1 2 3 5 4 4 5 7 6 5 5 5 2 3 1 5 7 7 8 7 5 8 11 11 11 14 14 13 13 12 11 10 14 16 15 15 14 13 12 12 12 12 13 13 12 12 12 11 12 11 10 12 13 11 13 10 2 5 5 4 3 3 2 3 4 4 3 6 2 0 2 2 1 1 0 5 1 1 2 3 4
3 1 3 4 6 2 7 10 5 6 6 5 7 10 11 4 7 6 7 8 6 9 6 6 1 6 6 6 14 12 13 12 13 11 10 11 11 13 14 13 12 12 12 11 11 11 11 10 10 10 10 10 10 10 11 11 12 12 12 14 13 12 12 13 13 12 11 12 12 8 5 8 8 7 4 4 7 7 9 9 3 1 1 2 3 3
5 7 2 0 2 3 10 7 6 4 3 0 1 9 8 7 4 7 4 5 5 3 4 6 8 8 8 8 13 10 12 9 10 11 10 8 10 11 11 10 10 10 10 10 10 10 8 9 9 10 10 9 9 8 7 10 10 9 10 10 10 11 10 10 11 10 10 11 10 9 9 7 5 3 6 10 9 6 4 3 2 2 2 2 3 3
4 6 5 2 2 1 2 3 5 0 1 1 4 9 13 8 12 10 7 8 8 11 14 13 12 11 9 8 8 13 12 12 11 11 11 11 11 11 11 10 10 10 10 10 10 9 9 9 9 11 12 12 11 10 10 11 10 9 11 11 11 10 11 10 11 11 10 10 10 10 10 9 8 7 6 5 2 0 0 2 2 1 0 1 0 1
4 5 3 2 2 0 2 2 1 1 1 1 2 9 14 9 10 9 10 6 4 10 12 11 11 13 13 12 11 11 14 12 12 12 11 9 8 9 10 9 8 9 9 7 9 8 8 9 9 10 9 9 10 10 10 9 8 10 9 9 11 10 11 11 12 12 12 11 11 11 10 11 11 10 9 7 6 7 6 3 0 0 0 1 2 1
5 2 1 1 2 2 1 3 3 2 1 7 3 5 8 5 5 3 3 5 10 0 12 14 11 11 12 11 11 10 10 10 12 8 7 7 7 7 9 9 9 8 7 5 6 5 4 6 8 8 10 11 13 13 10 9 9 8 8 10 9 9 10 10 11 11 10 10 11 11 9 9 10 10 10 7 8 8 6 6 5 2 1 2 3 4
2 2 1 3 2 2 4 3 2 1 0 1 2 3 6 6 7 5 4 3 9 9 12 14 14 12 12 11 10 10 5 12 9 5 3 4 5 7 7 7 7 7 6 6 4 4 3 4 4 4 6 6 6 6 9 10 10 10 9 9 9 9 10 11 11 10 10 10 10 10 10 10 10 10 9 9 8 7 7 6 3 2 1 5 5 5
9 6 5 3 1 3 2 1 1 1 1 3 5 2 5 7 8 8 4 4 3 4 8 13 12 9 9 9 8 3 3 6 4 3 4 4 4 6 8 6 6 6 5 5 6 5 3 2 2 2 2 4 5 5 5 7 9 9 9 9 9 9 10 10 9 9 9 8 8 8 8 8 8 8 7 8 9 7 8 6 7 5 1 1 3 5
9 6 7 4 2 3 0 3 2 2 1 4 7 5 4 3 8 2 4 2 3 8 8 10 11 9 7 4 4 6 8 9 7 5 6 5 5 5 6 7 6 6 6 7 5 3 4 4 2 2 5 6 5 5 5 5 6 8 8 7 6 7 7 6 5 5 6 6 6 5 6 7 7 7 7 7 6 7 7 6 8 8 7 9 7 6
5 4 6 5 2 1 3 3 3 2 1 3 5 9 8 2 2 3 3 2 2 7 6 8 9 7 5 4 1 5 4 7 8 8 6 6 6 5 3 3 5 7 8 8 7 8 6 6 7 7 6 6 6 5 5 5 6 6 5 4 4 4 3 3 4 4 4 4 4 5 6 6 5 7 8 7 7 7 6 7 7 7 7 8 8 8
3 0 2 2 4 3 2 4 3 1 3 5 10 7 7 1 3 3 3 4 8 10 10 10 10 8 8 10 10 10 10 11 11 9 8 7 6 6 7 7 7 7 7 7 7 6 5 6 7 6 6 5 5 4 4 4 5 3 3 3 3 3 2 3 3 3 3 4 5 5 6 6 6 6 6 7 8 8 8 7 7 7 7 6 5 5
1 2 2 2 3 1 3 4 1 2 3 6 7 4 8 5 2 5 7 8 8 11 11 10 10 10 11 11 9 10 10 9 8 9 8 8 8 8 8 7 7 6 6 6 6 6 5 5 5 5 4 3 3 2 3 3 2 1 2 2 1 2 3 3 3 4 6 6 7 6 6 6 8 8 7 8 8 8 8 7 8 8 8 8 9 8
4 3 1 1 1 1 2 2 2 1 2 8 8 5 2 1 1 5 8 9 8 7 9 9 9 8 10 13 13 12 11 10 9 8 8 7 7 7 7 7 6 6 6 6 6 4 5 4 3 4 2 2 1 1 1 1 0 1 4 2 2 3 4 4 4 4 5 5 5 6 6 7 7 7 7 7 8 9 9 9 9 8 7 8 8 8
4 4 2 4 3 2 2 3 2 2 5 8 8 8 8 10 10 9 10 9 9 9 8 9 6 6 8 11 11 10 9 8 8 7 7 5 6 6 6 6 4 4 4 5 6 4 4 3 1 2 1 1 1 1 1 1 4 5 6 5 6 7 7 7 7 6 6 6 6 6 6 7 7 7 6 7 7 8 8 8 9 9 8 7 7 7
5 9 9 7 7 7 7 5 6 7 9 10 9 8 10 11 11 11 12 11 8 8 7 8 8 9 9 8 9 7 6 5 6 6 6 5 5 5 5 5 4 4 3 4 4 3 3 2 1 1 0 3 4 5 5 6 6 6 4 5 7 7 7 8 8 7 7 7 6 7 7 8 8 7 7 8 7 7 7 7 7 7 8 7 7 8
4 3 4 6 6 5 3 4 7 7 6 6 10 10 10 9 8 8 9 9 8 9 10 10 10 10 8 8 8 7 6 5 5 5 5 5 4 4 5 5 4 4 4 3 1 2 4 2 1 3 4 6 7 7 7 7 7 7 7 8 8 8 7 7 7 7 6 7 6 6 5 5 5 6 5 5 5 6 7 7 7 7 7 6 7 8
3 3 7 5 4 4 5 5 5 6 5 6 7 8 8 7 7 7 7 7 7 7 7 8 8 8 6 7 7 7 5 5 4 3 4 2 4 5 5 5 4 4 4 2 0 3 4 3 3 5 6 6 6 6 7 8 8 8 8 7 7 7 7 7 7 6 6 7 7 6 6 6 7 7 6 6 6 6 6 6 6 7 7 7 7 7
2 4 3 2 5 5 7 6 6 6 8 9 9 8 7 6 7 5 5 7 8 9 9 8 7 6 5 5 5 7 5 4 4 4 2 3 6 5 5 5 5 4 3 1 4 3 3 1 6 5 5 5 5 6 7 6 5 6 6 5 4 4 6 6 5 6 5 5 6 7 6 6 6 6 7 7 7 6 5 6 6 7 8 6 4 5
7 5 3 7 7 3 2 5 5 5 4 5 7 6 5 5 5 6 6 6 7 7 5 6 5 5 6 6 6 5 5 5 5 5 5 5 4 5 6 7 5 5 5 5 3 3 0 5 5 5 4 4 4 5 4 4 4 4 4 4 4 5 5 5 6 6 6 6 6 5 6 6 6 6 6 7 7 7 7 7 9 7 6 7 12 14
5 3 3 3 3 1 4 6 2 6 5 5 6 5 6 5 6 5 5 5 6 6 6 7 7 6 5 4 4 5 7 7 5 5 5 8 9 7 5 5 3 3 5 4 5 3 4 5 5 6 5 4 4 4 4 4 4 4 4 3 3 4 4 3 4 4 5 6 5 6 6 6 6 6 7 7 7 7 8 7 5 7 9 10 12 13
Wind_Direction
136 190 215 217 222 228 225 225 238 249 243 251 258 271 254 247 252 247 241 234 231 217 201 205 189 193 214 224 235 252 258 285 232 186 140 160 157 164 165 160 152 138 140 144 147 156 159 157 148 152 141 176 144 89 100 130 122 113 122 132 140 154 113 85 213 139 136 134 136 142 156 160 166 159 152 145 137 137 137 144 153 150 127 123 112 124
187 202 227 223 220 227 242 220 224 244 260 261 275 271 283 282 282 271 268 248 226 211 203 194 188 189 207 217 228 243 263 244 214 172 157 155 159 168 159 152 142 120 122 138 144 151 150 153 150 145 158 160 127 120 142 124 90 102 115 144 141 118 159 142 258 148 144 156 161 163 173 157 157 135 116 117 115 124 133 135 146 135 123 125 124 129
203 220 232 224 229 228 236 242 224 224 242 257 250 272 285 276 281 293 288 269 246 226 167 188 191 204 208 205 225 226 225 198 213 142 168 149 161 169 158 157 135 134 142 145 147 151 157 158 152 149 148 124 117 130 121 79 90 117 123 124 113 99 158 135 266 198 163 172 174 162 167 149 143 112 128 122 123 119 119 123 125 128 131 129 135 134
236 242 225 216 229 235 240 243 235 230 233 236 253 261 260 266 293 302 293 312 2 221 160 171 182 226 211 208 217 212 180 176 187 168 177 155 166 167 165 159 150 146 147 148 152 153 149 145 138 132 128 97 105 99 75 82 112 125 135 145 145 149 183 206 213 168 178 144 114 106 112 113 120 134 122 111 115 111 111 117 129 126 139 149 154 154
227 242 205 219 232 232 237 244 243 201 237 239 226 228 259 285 263 255 289 331 336 336 96 78 50 349 286 196 285 290 221 193 194 184 155 154 149 158 145 149 149 151 148 148 147 146 139 133 117 123 86 83 83 81 104 162 152 142 146 158 162 160 182 210 171 131 115 109 98 96 93 95 88 80 94 111 108 122 133 135 139 154 140 152 146 149
242 244 209 205 224 235 239 253 245 190 270 296 237 205 241 267 279 297 319 347 356 337 336 92 52 297 294 316 264 264 282 190 195 180 181 167 104 116 136 134 128 129 143 146 137 111 103 113 92 88 76 94 113 136 177 160 145 149 155 159 170 151 167 181 149 117 113 115 116 111 109 105 100 103 113 125 137 143 142 155 171 143 152 146 133 149
228 235 225 212 208 220 221 232 218 161 192 332 263 231 242 256 269 284 293 336 332 189 279 73 164 269 324 292 260 275 237 232 195 169 179 158 112 121 130 136 139 134 122 89 80 80 69 64 44 53 85 121 143 159 115 107 131 143 155 166 152 127 140 130 95 93 111 115 116 120 125 128 133 139 158 152 139 130 136 122 115 126 113 129 140 155
208 238 231 230 199 210 224 224 192 148 164 246 257 288 275 258 257 258 260 256 242 262 142 127 114 162 291 296 275 251 259 261 169 162 154 150 97 123 117 115 106 98 92 95 89 69 53 42 35 29 86 81 74 35 71 137 154 153 147 150 152 136 146 149 133 107 115 123 128 128 131 138 141 142 143 128 129 123 119 112 111 100 104 116 134 137
193 220 233 249 240 208 198 171 196 155 179 214 211 230 261 265 261 253 221 246 255 154 267 272 128 67 256 269 287 287 262 270 186 169 146 95 118 102 89 92 99 101 110 117 126 114 100 89 51 76 81 98 120 135 164 170 150 152 164 156 146 142 144 147 142 127 124 132 141 141 135 125 142 127 124 125 121 118 120 117 124 100 91 84 87 112
215 207 199 232 207 216 197 177 193 196 212 234 232 245 254 267 268 255 217 245 325 33 272 270 145 147 287 268 283 304 259 242 192 200 111 124 110 94 94 103 102 101 110 105 99 103 104 105 104 109 137 167 144 139 140 135 132 146 147 144 158 156 148 152 155 147 142 125 146 130 133 136 136 125 120 115 120 121 130 129 116 110 102 96 68 54
259 201 222 193 209 205 188 224 226 226 222 204 206 230 257 262 260 281 238 171 120 192 245 229 227 152 266 274 223 236 231 188 181 97 101 107 93 96 105 114 124 136 140 119 119 122 121 127 136 150 166 161 132 131 129 140 174 168 159 165 177 169 156 167 165 154 140 138 172 139 139 139 136 130 125 118 122 130 114 120 127 117 115 99 95 78
253 257 223 189 171 185 185 255 217 235 228 211 208 208 242 298 308 332 240 128 157 260 234 187 217 160 208 293 298 340 360 295 144 125 121 110 101 104 106 107 115 120 126 123 122 133 140 144 167 157 164 145 136 133 142 167 186 185 174 174 179 173 168 172 163 143 131 122 138 140 143 139 140 135 133 135 146 147 136 135 133 126 112 113 96 87
234 237 178 235 82 97 177 227 274 251 223 204 214 224 191 255 37 325 16 194 206 179 235 180 221 243 220 253 267 44 45 16 59 124 122 107 101 105 100 106 113 132 124 132 139 144 153 156 173 184 163 145 147 147 160 184 194 185 174 177 178 180 179 177 167 157 152 151 169 160 152 142 136 133 136 139 147 149 136 141 130 127 130 121 101 89
277 250 269 197 196 170 239 181 237 266 241 194 194 171 173 95 221 248 272 193 285 261 157 220 217 226 217 66 343 58 54 55 48 70 114 113 115 120 125 125 127 134 139 137 146 147 154 159 162 195 146 173 178 158 175 188 184 176 179 179 183 182 181 171 160 149 145 150 183 171 160 139 132 135 135 142 147 152 149 148 147 140 145 137 132 122
281 262 259 213 220 153 210 221 208 232 172 177 176 149 165 159 159 213 177 203 212 215 255 207 134 258 147 205 73 75 59 56 52 60 76 92 115 124 125 125 128 123 116 126 133 156 163 165 169 175 176 185 188 133 120 120 163 216 197 182 198 165 128 102 144 140 144 166 212 186 158 135 130 135 137 147 152 150 149 150 147 138 138 123 120 117
219 213 226 214 234 172 205 213 233 267 305 278 218 190 219 221 151 175 195 140 258 22 0 356 156 237 143 239 85 73 68 58 58 66 79 95 101 110 110 111 113 120 125 136 146 160 135 133 161 180 178 179 202 109 99 110 114 131 171 50 33 72 124 133 142 162 156 186 202 177 148 137 132 133 136 139 136 140 140 143 119 120 119 120 120 118
273 282 223 200 214 188 199 182 218 191 211 276 32 213 214 195 132 102 355 305 93 44 275 193 62 357 314 7 50 70 67 65 66 68 76 85 94 96 102 110 113 115 127 133 144 144 105 117 137 146 199 218 137 116 129 147 152 157 154 141 120 136 152 160 151 168 166 204 158 173 137 132 129 134 137 139 127 122 115 105 111 116 120 117 116 116
172 236 291 291 202 221 211 187 215 186 150 118 234 235 276 173 127 128 181 292 296 178 255 122 165 162 66 238 20 59 71 66 75 77 83 85 98 101 106 116 124 129 127 116 117 133 160 112 126 143 160 178 158 144 155 152 132 121 124 131 152 163 164 162 136 144 145 210 130 154 129 127 134 135 135 130 123 114 102 101 109 113 113 121 124 124
207 270 283 294 317 225 220 184 211 242 162 161 201 225 83 328 26 310 110 173 196 214 235 86 129 69 78 224 344 39 96 91 89 95 89 89 95 105 114 115 114 119 121 127 134 149 151 138 143 153 155 151 131 129 140 113 98 72 39 156 172 170 146 145 137 119 133 162 163 164 151 142 137 123 127 121 117 111 109 117 122 122 128 122 122 118
177 166 298 316 274 318 5 209 225 234 235 225 111 149 131 125 158 121 192 188 121 225 96 342 41 293 333 253 270 139 92 96 90 81 91 94 102 113 118 125 130 128 128 131 136 145 145 134 123 119 118 113 110 91 91 125 126 124 139 129 91 85 81 69 63 24 46 344 159 147 139 136 132 129 127 124 116 113 116 126 127 130 128 135 128 130
270 128 206 283 312 77 354 321 215 177 266 249 217 181 188 112 227 125 284 133 160 176 165 154 323 272 282 293 18 78 80 89 94 91 88 94 103 114 119 128 135 133 131 134 139 142 141 130 117 105 100 106 98 96 94 68 61 78 83 98 107 111 63 59 71 74 5 6 357 338 139 129 118 121 119 114 115 117 124 125 131 137 140 130 135 143
2 67 182 269 328 279 182 230 26 38 27 337 203 209 165 111 89 168 265 236 156 107 201 135 212 321 270 301 48 63 37 60 67 94 97 102 107 113 113 111 115 119 124 132 132 129 129 121 119 119 124 113 80 58 79 80 82 80 78 75 63 70 81 69 61 114 81 34 15 18 345 82 117 117 111 111 114 123 131 133 137 144 136 139 157 153
141 262 143 182 201 202 309 317 352 44 24 50 41 4 339 109 125 136 77 289 29 67 92 118 103 262 306 50 61 52 56 48 22 23 81 76 77 81 76 67 54 104 138 128 125 135 145 149 139 129 116 97 84 65 60 62 61 73 92 88 73 57 88 85 39 178 84 56 41 32 18 314 116 118 114 112 115 127 133 135 136 143 139 148 166 162
29 341 258 328 355 338 339 3 27 46 38 17 18 19 21 5 275 182 178 186 150 358 45 34 70 87 25 17 66 62 51 46 40 24 82 76 75 81 70 49 53 58 76 125 133 132 128 120 111 112 111 106 98 91 63 53 38 32 43 79 90 52 83 80 351 16 19 42 31 29 9 335 334 87 115 116 132 135 136 129 137 142 142 159 172 158
31 306 103 4 1 351 345 355 6 39 50 66 11 24 14 8 17 341 95 80 98 191 150 151 188 202 201 80 57 76 62 38 61 61 64 84 81 79 76 75 54 60 63 62 93 112 107 88 77 69 64 69 81 70 75 74 42 56 40 64 58 92 95 78 46 67 29 53 82 76 77 69 45 356 349 127 142 144 143 141 142 145 145 155 170 160
100 237 31 116 132 147 221 243 239 4 337 21 34 29 30 23 354 19 78 51 98 289 124 116 116 127 114 100 96 80 87 83 77 89 75 80 86 86 79 74 72 63 57 60 48 40 41 51 57 54 55 58 52 56 96 136 137 137 146 145 111 40 51 72 57 75 108 103 128 103 94 103 155 171 263 64 125 161 154 154 151 161 156 156 176 158
167 279 329 164 149 194 199 167 213 139 55 63 26 31 27 29 15 33 64 66 115 155 82 177 145 143 122 115 108 113 117 130 107 87 80 70 68 73 77 73 69 65 56 54 54 50 48 33 36 45 45 66 97 132 308 19 80 79 112 100 97 79 63 79 93 103 72 25 26 64 106 98 275 324 285 307 334 268 160 158 164 169 171 176 167 163
127 71 269 325 27 133 130 127 144 82 105 72 51 34 36 34 39 55 65 215 258 75 45 16 135 122 137 137 139 128 123 112 101 99 83 75 71 74 81 76 64 55 43 53 60 52 48 38 42 65 65 63 60 40 85 111 54 86 78 91 89 91 63 76 69 53 105 124 117 102 165 119 304 330 349 0 359 322 145 137 169 175 148 177 164 169
331 37 261 112 255 154 135 120 119 109 95 111 75 47 47 38 41 51 23 277 270 138 170 138 112 108 124 124 123 121 128 126 121 110 114 118 113 111 97 82 72 68 63 57 52 50 46 39 41 38 19 341 154 160 156 142 103 116 127 107 82 51 74 73 74 75 85 146 152 157 144 123 251 262 28 55 338 353 17 23 54 68 83 60 33 212
19 213 268 169 208 217 147 132 139 139 118 114 107 85 67 56 55 43 10 4 61 80 126 117 98 88 75 75 80 97 98 101 90 89 94 114 121 107 96 90 80 70 62 59 57 52 48 45 40 36 37 38 36 32 23 20 44 85 120 126 133 141 157 139 138 161 169 144 134 131 128 129 159 157 65 56 63 23 356 346 352 67 62 54 68 49
31 288 320 245 171 236 144 137 145 133 107 113 115 95 77 85 82 61 35 6 53 56 51 96 105 97 69 58 44 42 65 58 72 68 52 31 84 103 99 93 85 76 66 60 56 50 48 44 39 36 38 37 37 34 34 32 34 30 19 12 131 136 148 131 129 123 129 135 132 115 124 132 109 49 50 85 100 131 180 331 310 2 38 57 46 23
33 303 347 10 47 343 85 110 111 69 71 70 58 45 64 77 69 45 60 325 97 98 61 30 66 96 77 74 82 67 70 69 67 70 65 59 42 66 77 82 84 82 73 65 58 52 45 41 35 34 33 34 33 35 35 32 32 30 22 27 12 73 82 62 67 78 75 70 83 108 115 71 86 89 328 102 81 32 325 13 272 298 358 29 36 16
127 49 33 22 29 330 346 41 34 97 63 39 6 345 323 303 124 94 86 92 115 123 86 99 285 39 63 70 82 57 62 61 62 61 69 61 58 69 74 77 80 79 80 75 67 58 52 47 42 35 32 33 30 34 33 32 34 28 28 28 31 41 52 56 54 49 43 36 36 46 102 150 165 185 186 147 170 187 190 199 195 73 59 21 20 31
141 105 40 8 104 315 357 14 45 49 73 128 295 315 320 279 162 114 112 127 126 97 158 143 133 99 89 74 86 84 71 60 72 64 53 69 83 74 70 70 73 74 69 64 62 56 52 52 43 36 31 28 26 32 33 36 36 34 30 31 36 41 42 50 51 48 42 37 35 35 36 48 67 101 155 169 176 175 158 123 103 106 90 35 26 17
86 101 147 180 98 235 187 51 48 353 141 261 332 333 346 6 102 102 98 96 102 107 112 118 116 106 102 97 89 93 87 80 68 69 69 74 81 90 92 81 75 75 72 66 62 50 40 42 40 37 29 16 12 13 24 26 26 28 30 26 31 31 35 38 41 38 33 32 29 25 19 23 33 36 34 21 20 20 318 169 181 99 46 106 95 319
127 123 146 62 165 178 75 79 140 178 204 310 344 4 355 9 26 80 87 70 96 135 128 104 110 113 112 109 105 101 101 96 78 65 67 63 76 97 96 92 90 86 86 83 80 70 62 47 37 30 22 15 13 12 16 22 19 29 28 27 32 28 31 31 33 28 24 23 20 17 13 13 11 9 7 23 32 44 29 359 74 298 5 356 315 262
139 74 60 63 347 152 164 80 97 100 33 2 13 6 352 359 345 359 107 356 332 336 106 114 107 110 112 111 118 119 115 95 75 62 50 75 81 81 94 101 102 103 106 99 94 96 93 80 74 59 44 28 21 8 3 8 19 26 32 31 25 29 30 30 28 22 22 20 14 9 9 10 6 359 354 9 21 14 17 27 12 317 297 322 311 307
103 112 245 88 299 59 103 95 77 30 144 321 295 290 337 342 337 348 91 30 14 56 108 114 122 127 125 130 135 148 134 75 62 57 66 87 96 101 95 104 111 112 115 115 97 83 71 73 77 89 92 70 54 18 358 9 13 23 31 24 16 23 27 27 23 19 21 17 9 2 0 354 356 355 355 360 8 360 353 1 52 74 304 295 292 286
26 52 104 108 182 38 47 107 112 110 151 250 274 281 318 326 342 321 83 45 294 97 111 113 117 125 131 142 156 165 63 83 107 142 156 156 133 114 110 101 102 106 112 129 146 147 148 181 128 109 107 95 61 43 31 16 19 28 29 20 20 27 27 24 18 14 12 6 360 358 353 352 354 358 357 355 348 351 351 351 341 339 2 169 207 239
34 8 18 21 51 9 91 87 87 58 50 311 320 330 337 326 315 334 66 166 169 142 127 122 126 132 131 131 118 94 112 124 148 159 165 156 139 131 123 120 113 105 86 62 56 123 156 163 152 96 65 57 51 45 43 36 44 44 35 30 34 35 27 20 15 358 359 358 0 0 2 355 355 354 353 344 338 342 339 335 338 337 334 327 326 306
7 2 37 45 18 136 94 75 92 103 353 301 297 304 295 312 354 75 147 134 22 89 113 114 118 126 135 135 106 93 77 112 129 141 149 150 135 132 130 122 91 78 70 57 42 30 48 68 67 66 64 60 49 42 31 34 51 44 33 34 44 39 15 0 357 352 354 5 0 359 352 352 357 352 349 347 345 344 342 339 328 319 318 311 309 312
29 66 343 28 26 30 67 80 82 66 248 253 286 284 290 348 83 127 91 132 94 85 91 105 107 98 90 89 97 97 102 103 109 110 105 97 94 85 82 76 72 74 80 80 53 36 26 65 66 59 56 56 53 44 42 47 55 39 25 23 36 5 319 334 331 329 351 359 354 349 348 352 351 351 343 337 342 341 338 339 337 327 317 301 294 299
293 72 45 32 317 2 45 105 109 74 330 314 307 359 4 78 72 97 102 82 88 89 90 89 95 98 95 91 89 101 105 97 92 88 83 79 73 69 66 64 66 61 65 63 50 21 25 69 67 68 69 71 71 79 86 75 93 80 5 4 342 304 304 331 359 14 16 9 5 3 359 357 355 353 349 340 339 343 339 340 340 337 335 328 317 303
350 78 51 47 309 94 43 61 103 99 338 354 48 97 0 11 355 72 86 80 57 73 87 91 78 84 93 96 91 85 84 86 77 77 79 76 76 73 65 61 55 50 48 61 57 17 9 71 67 78 84 112 148 102 128 131 86 7 9 338 347 6 13 22 25 29 24 13 3 2 357 356 355 352 346 346 348 347 342 339 336 332 330 328 323 313
356 98 106 97 330 86 120 129 143 110 57 54 70 79 65 45 53 66 74 71 72 56 57 67 66 72 85 90 90 90 88 89 99 95 92 91 91 95 92 80 79 71 67 72 58 14 1 65 61 103 79 296 275 218 198 98 59 23 27 4 21 20 19 15 17 17 12 7 4 1 353 353 347 343 346 347 346 338 335 331 331 326 323 324 322 320
112 112 99 84 68 76 73 91 104 68 65 66 61 63 63 60 53 63 75 79 67 75 62 73 68 68 69 70 81 73 79 83 87 98 99 95 84 80 91 87 73 64 57 74 49 7 335 331 77 122 332 2 28 26 34 35 48 48 24 20 27 23 21 20 20 16 5 2 359 355 349 346 337 339 343 339 335 331 328 330 330 329 327 328 325 326
53 52 73 102 159 99 84 71 84 98 101 86 81 72 64 59 59 64 74 77 83 75 74 67 66 64 70 74 74 74 69 74 85 86 96 94 98 97 89 87 80 73 57 56 74 330 320 306 61 29 40 38 20 30 31 34 28 33 32 31 26 26 23 23 19 10 1 353 348 342 336 325 321 320 321 321 326 331 333 332 330 331 334 340 336 334
356 36 79 68 75 91 133 121 99 95 96 93 89 82 80 76 71 69 78 83 88 86 87 91 87 78 74 85 94 88 78 62 58 77 95 107 112 92 83 72 64 63 46 29 53 291 329 4 66 50 38 37 27 29 31 32 28 27 29 26 21 20 18 14 6 2 351 348 343 336 328 326 323 328 330 329 332 330 326 320 323 324 325 329 327 331
89 27 101 143 94 82 89 109 120 102 77 75 84 87 93 105 107 100 89 90 88 89 86 80 84 91 79 78 97 114 103 77 53 36 70 88 72 72 78 66 51 33 25 16 319 352 344 35 65 55 50 40 33 38 39 34 27 25 24 21 21 32 25 6 355 350 345 339 340 327 328 341 349 337 332 329 329 323 310 312 319 317 314 307 308 305
50 37 28 78 102 103 157 140 117 112 120 100 99 120 131 138 124 120 116 110 108 106 103 94 76 68 73 73 69 77 101 97 60 39 46 88 90 72 62 61 42 15 355 328 319 337 91 73 67 63 61 49 47 46 40 29 23 20 10 8 31 42 30 14 4 358 346 347 339 332 343 340 333 328 332 329 322 316 308 299 296 299 303 309 316 316
91 97 96 90 118 142 117 138 171 123 117 127 138 151 159 147 133 138 136 135 133 134 128 114 112 109 119 112 102 103 94 83 69 53 45 58 61 59 56 50 38 16 320 320 355 353 75 55 55 59 48 56 46 39 30 21 15 14 4 26 39 53 42 23 18 354 337 337 331 328 328 330 328 330 325 316 311 307 304 301 294 292 308 317 317 318